カタログに戻る

COSMOS 970 DEB

運用中LEO
NORAD 64992·DEBRIS·🇷🇺 Russia

打ち上げ Dec 21, 1977 から Baikonur Cosmodrome

Loading…

次のパス (今後24時間)

TLE

最新Source: Space-Track

元期: Sep 13, 2026, 14:49 UTC

1 64992U 77121DD  26256.61740059 -.00000045  00000-0  44405-4 0  9992
2 64992  65.8514  28.8433 0116807 255.1204 117.6741 13.54543763633494

AllMySatでCOSMOS 970 DEBをリアルタイム追跡

Download on the App Store